Regional Weather Roundup
Issued by NWS Raleigh/Durham, NC

Home | Current Version | Previous Version | Text Only | Print | Product List | Glossary On
Versions: 1 2 3 4 5 6 7 8 9 10 11 12 13 14 15 16 17 18 19 20 21 22 23 24 25 26 27 28 29 30 31 32 33 34 35 36 37 38 39 40 41 42 43 44 45 46 47 48 49 50
580
ASUS42 KRAH 281310
RWRRAH
NORTH CAROLINA WEATHER ROUNDUP
NATIONAL WEATHER SERVICE RALEIGH NC
900 AM EDT THU JUL 28 2016

NOTE: "FAIR" INDICATES FEW OR NO CLOUDS BELOW 12,000 FEET WITH NO
SIGNIFICANT WEATHER AND/OR OBSTRUCTIONS TO VISIBILITY.

NCZ001-053-055-056-065-067-281400-
WESTERN NORTH CAROLINA

CITY           SKY/WX    TMP DP  RH WIND       PRES   REMARKS
ASHEVILLE      SUNNY     76  67  73 CALM      30.07F
JEFFERSON      SUNNY     72  65  79 W14G21    30.10R
HICKORY        SUNNY     80  73  79 CALM      29.99F
RUTHERFORDTON    N/A     78  74  86 CALM      30.01S
MOUNT AIRY     SUNNY     82  74  78 CALM      30.01R
BOONE          MOSUNNY   73  65  77 W12       30.12R
$$

NCZ021-022-025-041-071-084-088-281400-
CENTRAL NORTH CAROLINA

CITY           SKY/WX    TMP DP  RH WIND       PRES   REMARKS
CHARLOTTE      MOSUNNY   82  70  66 SW8       29.99R
GREENSBORO     MOSUNNY   81  72  74 VRB3      29.97R
WINSTON-SALEM  SUNNY     80  71  74 S3        29.99R
RALEIGH-DURHAM MOSUNNY   82  74  76 SW3       29.95S
FORT BRAGG     SUNNY     86  73  63 W7        29.95R
FAYETTEVILLE   SUNNY     87  71  58 W9        29.96R
BURLINGTON     SUNNY     78  73  84 CALM      29.96S
LAURINBURG     SUNNY     86  71  60 W9        29.98R
$$

NCZ011-015-027-028-043-044-047-080-103-281400-
NORTHEASTERN NORTH CAROLINA

CITY           SKY/WX    TMP DP  RH WIND       PRES   REMARKS
ROCKY MT-WILSO SUNNY     82  78  88 SW5       29.94S
GREENVILLE     SUNNY     86  79  79 CALM      29.96S HX  99
WASHINGTON     SUNNY     83  77  81 W5        29.94S
ELIZABETH CITY SUNNY     84  76  76 SW6       29.93S
MANTEO         NOT AVBL
CAPE HATTERAS  MOSUNNY   84  80  88 SW6       29.95S HX  97
$$

NCZ078-087-090-091-093-098-101-281400-
SOUTHEASTERN NORTH CAROLINA

CITY           SKY/WX    TMP DP  RH WIND       PRES   REMARKS
LUMBERTON      SUNNY     85  71  63 W10       29.97R
GOLDSBORO      SUNNY     87  79  76 W8        29.94R HX 100
KINSTON        SUNNY     86  75  70 SW7       29.96R HX  95
KENANSVILLE    NOT AVBL
NEW BERN       SUNNY     85  77  77 W6        29.96R HX  95
CHERRY POINT   SUNNY     86  77  74 SW6       29.96R HX  97
BEAUFORT       SUNNY     84  80  88 SW9         N/A  HX  97
JACKSONVILLE   MOSUNNY   86  75  69 W9        29.95R HX  95
WILMINGTON     SUNNY     87  76  69 W8        29.97R HX  97
$$





USA.gov is the U.S. government's official web portal to all federal, state and local government web resources and services.